Main page
METAR-TAF:

METAR-TAF

Airports :

Chandigarh, India

Chandigarh Airport

latitude: 30-40-29N, longitude: 76-47-26E, elevation: 314 m

Current weather observation

The report was made 7 hours and 49 minutes ago, at 15:30 UTC
Wind 5 kt from the Southeast
Temperature 27°C
Humidity 94%
Pressure 1004 hPa
Visibility: 6000 m
Scattered clouds at a height of 2000 ft
Broken clouds at a height of 25000 ft

METAR: VICG 231530Z 14005KT 6000 SCT020 BKN250 27/26 Q1004 NOSIG

Time: 04:49 (23:19 UTC)


TAF: missing

Weather observations and forecasts of more than 4000 airports (METAR and TAF reports).

The available stations are represented by yellow and red dots on the map.

Hover mouse over dot to see the name of the station.

Then click to see weather observations and forecasts.

To change the map : click on the green buttons with a black cross to zoom in, on the green button with a dash to zoom out, or on the green arrows for adjacent maps.


METAR-TAF: